EW9275 Weather Reports


time (UTC)temp
F
wind
direction
speed
knots
gust
knots
rain 1hr
in
rain 24hr
in
rain mn
in
humidity
%
barometer
mb
20260503193017 76 270 0.9 2.6 0.00 0.00 0.00 54 1013.8
20260503190016 75 0.0 2.6 0.00 0.00 0.00 56 1014.1
20260503183016 74 0.0 1.7 0.00 0.00 0.00 60 1014.5
20260503180016 72 0.0 0.9 0.00 0.00 0.00 61 1014.7
20260503173017 68 0.0 0.9 0.00 0.00 0.00 66 1014.8
20260503053015 61 0.0 0.0 0.00 0.00 0.00 81 1015.0
20260503050036 62 0.0 0.0 0.00 0.00 0.00 77 1014.9
20260503043015 64 0.0 0.0 0.00 0.00 0.00 74 1014.6
20260503040015 65 0.0 0.0 0.00 0.00 0.00 70 1014.3
20260503033018 68 0.0 0.0 0.00 0.00 0.00 66 1013.8
20260503030018 70 0.0 0.0 0.00 0.00 0.00 63 1013.5
20260503023039 72 0.0 0.9 0.00 0.00 0.00 59 1013.4
20260503020037 74 0.0 1.7 0.00 0.00 0.00 54 1013.4
20260503013017 75 0.0 1.7 0.00 0.00 0.00 53 1013.5
20260503010017 76 0.0 2.6 0.00 0.00 0.00 53 1013.5
20260503003018 76 270 0.9 3.5 0.00 0.00 0.00 54 1013.8
20260503000038 76 293 0.9 2.6 0.00 0.00 0.00 55 1013.8
20260502233017 76 270 0.9 4.3 0.00 0.00 0.00 54 1014.2
20260502230017 75 270 0.9 2.6 0.00 0.00 0.00 55 1014.5
20260502223017 74 270 0.9 2.6 0.00 0.00 0.00 56 1014.9
20260502220038 73 270 0.9 2.6 0.00 0.00 0.00 58 1015.3
20260502213017 72 315 0.9 3.5 0.00 0.00 0.00 59 1015.5
20260502210017 71 270 0.9 3.5 0.00 0.00 0.00 60 1015.9
20260502203037 71 0.0 3.5 0.00 0.00 0.00 61 1016.1
20260502200017 69 270 0.9 2.6 0.00 0.00 0.00 64 1016.4